Weather in Sudbodarovka

Russia / Orenburg Oblast     52°19′59″N   54°04′48″E
temp.,
°C
wind,
m/s
gust,
m/s
humid.,
%
clouds,
%
prec.,
mm/h
press.,
hPa
HPBL,
m
3 march, wed
wed323:00−4sw91595100 2.6 1008771
02:00−4sw81495100 1.1 1005669
05:00−3sw71296100 2.3 1004562
08:00−2sw61197100 1.0 1002469
11:00−1sw6997100 2.1 1003486
14:00−1wsw5799100 0.8 1003455
17:00−1nw4597100 2.2 1003402
20:00−5wnw489799 0.2 1004162
4 march, thu
thu423:00−6wnw4109499 0.3 1006255
02:00−11w489725 0.0 1006147
05:00−10wnw599660 0.1 1008245
08:00−13w4698100 0.1 1010116
11:00−11wsw5995100 0.1 1011278
14:00−8sw7129284 0.0 1010421
17:00−5sw9159291 0.2 1008772
20:00−4sw101794100 0.5 1006888
5 march, fri
fri523:00−1wsw111894100 1.5 1005941
02:00−1wsw101696100 1.0 1006852
05:00−2sw91494100 1.4 1007762
08:00−3sw91593100 0.2 1007574
11:00−2sw101794100 0.3 1006712
14:000sw111795100 0.9 1005937
17:000sw111797100 2.1 1005883
20:00+1wsw101698100 0.8 1005816
6 march, sat
sat623:000w81398100 2.1 1008692
02:00−6nw4895100 0.4 1011229
05:00−11n229699 0.4 101421
08:00−13ne129587 0.0 101521
11:00−10e238992 0.0 1015107
14:00−6se3591100 0.0 1013279
17:00−5e4596100 1.4 1009242
20:00−6ne4696100 3.2 1007243
7 march, sun
sun723:00−8nnw4796100 4.1 1007184
02:00−9nw4996100 0.1 1008258
05:00−12nw51096100 0.1 1011234
08:00−16wnw4896100 0.0 1012139
11:00−15wnw589588 0.0 1014269
14:00−14wnw469394 0.0 1015369
17:00−13w369183 0.0 1016311
20:00−17sw34950 0.0 101646